Regional Weather Roundup
Issued by NWS

Home | Current Version | Previous Version | Text Only | Print | Product List | Glossary Off
Versions: 1 2 3 4 5 6 7 8 9 10 11 12 13 14 15 16 17 18 19 20 21 22 23 24 25 26 27 28 29 30 31 32 33 34 35 36 37 38 39 40 41 42 43 44 45 46 47 48 49 50

000
ASUS43 KDMX 242204
RWRIA

WEATHER ROUNDUP FOR IOWA
NATIONAL WEATHER SERVICE DES MOINES IA
  ISSUED BY NWS QUAD CITIES IA IL
400 PM CST SAT JAN 24 2015

NOTE: "FAIR" INDICATES FEW OR NO CLOUDS BELOW 12,000 FEET WITH NO
SIGNIFICANT WEATHER AND/OR OBSTRUCTIONS TO VISIBILITY.

* - THESE STATIONS ARE NOT NWS STATIONS...THUS NOT UNDER NWS
QUALITY CONTROL.  THEY ALSO DO NOT REPORT WEATHER SUCH
AS PRECIPITATION OR FOG.

IAZ001>003-012>014-020>022-031>034-043>046-242300-
   NORTHWEST IOWA

CITY           SKY/WX    TMP DP  RH WIND       PRES   REMARKS
CARROLL *      CLOUDY    48  32  53 W13       29.64S
CHEROKEE *     CLOUDY    43  35  71 W6        29.62F WCI  40
DENNISON *     CLOUDY    48  32  53 W12G18    29.64R
LE MARS *      CLOUDY    46  34  61 W6        29.63F
ORANGE CITY *  CLOUDY    43  36  75 W7        29.62S WCI  39
SHELDON *      CLOUDY    41  36  81 W6        29.60S WCI  37
SIOUX CITY     CLOUDY    50  33  52 W5        29.64F
SPENCER        CLOUDY    40  33  76 W12       29.61F WCI  33
STORM LAKE *   CLOUDY    45  34  65 W15       29.63S WCI  38
$$

IAZ055>058-069>071-079>083-090>094-242300-
   SOUTHWEST IOWA

CITY           SKY/WX    TMP DP  RH WIND       PRES   REMARKS
ATLANTIC *     CLOUDY    52  30  43 W10G16    29.67R
AUDUBON *      CLOUDY    48  30  49 W9G16     29.67R
CLARINDA *     CLOUDY    55  28  35 SW13G18   29.70F
COUNCIL BLFS * PTSUNNY   52  32  46 W13       29.67R
CRESTON *      PTSUNNY   52  30  43 SW14      29.67S
HARLAN *       CLOUDY    50  32  50 W16       29.70R
LAMONI         PTSUNNY   53  28  38 W14       29.68F
RED OAK *      CLOUDY    55  28  35 W14G21    29.68S
SHENANDOAH *   PTSUNNY   55  30  38 SW14      29.70S
$$

IAZ047>049-059>061-072>074-084-242300-
   CENTRAL IOWA

CITY           SKY/WX    TMP DP  RH WIND       PRES   REMARKS
AMES           CLOUDY    47  34  60 W8        29.63F
ANKENY *       CLOUDY    52  32  46 W12       29.64F
BOONE *        PTSUNNY   48  34  57 W12       29.62S
CHARITON *     CLOUDY    52  30  43 W6        29.66S
DES MOINES     CLOUDY    52  31  44 W9        29.65F
GRINNELL *     MOCLDY    46  33  59 W6        29.65F
KNOXVILLE *    CLOUDY    50  30  46 W9        29.64S
MARSHALLTOWN   CLOUDY    44  34  67 W9        29.63F WCI  39
NEWTON *       CLOUDY    46  36  66 CALM      29.65S
PELLA *        CLOUDY    49  33  52 W6        29.66F
PERRY *          N/A     51  32  48 W16       29.65S
$$

IAZ004>006-015-016-023>025-035-036-242300-
   NORTH CENTRAL IOWA

CITY           SKY/WX    TMP DP  RH WIND       PRES   REMARKS
ALGONA *       CLOUDY    41  37  87 W9        29.62S WCI  35
CLARION *      PTSUNNY   39  39 100 SW6       29.62S WCI  35
ESTHERVILLE    CLOUDY    38  33  82 W13       29.60S WCI  30
FORT DODGE *   PTSUNNY   45  34  65 W9        29.64R WCI  40
MASON CITY     CLOUDY    39  34  82 W14       29.62R WCI  31
FOREST CITY *  FAIR      39  32  75 SW5       29.61S WCI  36
WEBSTER CITY * PTSUNNY   45  37  76 W7        29.61S
IOWA FALLS *   FAIR      43  36  75 W8        29.64R WCI  38
$$

IAZ007>011-017>019-026>030-037>042-050>054-066-242300-
   NORTHEAST IOWA

CITY           SKY/WX    TMP DP  RH WIND       PRES   REMARKS
CEDAR RAPIDS   SUNNY     44  34  67 W7        29.64S
CHARLES CITY * PTSUNNY   41  37  87 SW10      29.61S WCI  35
CLINTON *      CLEAR     45  36  70 W10       29.68S WCI  39
DECORAH *      PTCLDY    41  36  81 CALM      29.60F
DUBUQUE        MOCLDY    41  35  79 W7        29.63S WCI  36
MONTICELLO *   PTCLDY    46  36  66 W7        29.64S
OELWEIN *      MOSUNNY   45  37  76 SW6       29.62F
WATERLOO       MOSUNNY   45  35  68 W9        29.62F
$$

IAZ064-065-067-068-078-242300-
   EAST CENTRAL IOWA

CITY           SKY/WX    TMP DP  RH WIND       PRES   REMARKS
DAVENPORT      CLEAR     46  34  62 SW10      29.67R
IOWA CITY      SUNNY     47  34  60 W9        29.67S
MT. PLEASANT * MOSUNNY   47  34  60 SW8       29.68S
MUSCATINE *    FAIR      50  34  53 W7        29.68R
QUAD CITIES    SUNNY     46  34  62 SW9       29.66S
$$

IAZ062-063-075>077-085>089-095>099-242300-
   SOUTHEAST IOWA

CITY           SKY/WX    TMP DP  RH WIND       PRES   REMARKS
BURLINGTON     MOSUNNY   48  36  63 SW7       29.68S
FAIRFIELD *    MOSUNNY   50  32  50 SW9       29.67S
FORT MADISON * MOSUNNY   52  36  54 SW7       29.69S
KEOKUK *       MOSUNNY   52  34  50 W13       29.68F
OTTUMWA        PTSUNNY   51  31  46 W12       29.66S
WASHINGTON *   MOSUNNY   50  36  57 W8        29.66S
$$

ABBREVIATIONS USED IN REMARKS
   TC - TEMPERATURES IN CELSIUS
  WCI - WIND CHILL INDEX
   HX - HEAT INDEX
  VSB - VISIBILITY
$$



USA.gov is the U.S. government's official web portal to all federal, state and local government web resources and services.